Terminal Aerodrome Forecast
Issued by NWS

Home | Current Version | Previous Version | Text Only | Print | Product List | Glossary Off
Versions: 1 2 3 4 5 6 7 8 9 10 11 12 13 14 15 16 17 18 19

000
FTUS43 KGRB 201140
TAFRHI
TAF
KRHI 201140Z 2012/2112 30004KT P6SM SCT250
     FM201300 31003KT 3SM BR SCT250
      TEMPO 2014/2018 2SM BR
     FM201800 23005KT P6SM BKN250
     FM210100 VRB03KT P6SM BKN250
      TEMPO 2108/2112 3SM BR=

USA.gov is the U.S. government's official web portal to all federal, state and local government web resources and services.